Location: American Medical Response
(33.3472°N, 96.5511°W)
Time: 10:56:54
(UTC+00:00)

Cosmos 1805 Rocket - Pass Details

Date: 03 July 2022
Orbit: 605 x 629 km, 82.5° (Epoch: 10 August)

Event Time Altitude Azimuth Distance (km) Brightness Sun altitude
Exits shadow 10:21:07 16° 223° (SW) 1,648 5.1 -11.4°
Maximum altitude 10:24:07 33° 281° (W) 1,047 4.4 -10.9°
Drops below altitude 10° 10:28:07 10° 346° (NNW) 1,991 6.5 -10.2°
Sets 10:30:32 0° 356° (N) 2,896 7.5 -9.8°
